Location: Lugrin
(46.4033°N, 6.6674°E)
Time: 05:27:57
(UTC+00:00)

Tsikada Rocket - Pass Details

Date: 21 January 2021
Orbit: 958 x 1009 km, 82.9° (Epoch: 06 March)

Event Time Altitude Azimuth Distance (km) Brightness Sun altitude
Rises 17:22:11 0° 211° (SSW) 3,703 7.9 -10.4°
Reaches altitude 10° 17:24:54 10° 218° (SW) 2,751 7.3 -10.9°
Maximum altitude 17:30:46 40° 287° (WNW) 1,424 5.4 -11.8°
Drops below altitude 10° 17:36:37 10° 356° (N) 2,734 6.2 -12.8°
Sets 17:39:19 0° 4° (N) 3,678 6.8 -13.2°
